Regional Weather Roundup
Issued by NWS Charleston, WV

Home | Current Version | Previous Version | Graphics & Text | Print | Product List | Glossary On
Versions: 1 2 3 4 5 6 7 8 9 10 11 12 13 14 15 16 17 18 19 20 21 22 23 24 25 26 27 28 29 30 31 32 33 34 35 36 37 38 39 40 41 42 43 44 45 46 47 48 49 50
000
ASUS41 KRLX 262010
RWRRLX
West Virginia Regional Weather Roundup
National Weather Service Charleston WV
400 PM EDT SUN APR 26 2015

Note: "fair" indicates few or no clouds below 12,000 feet with no
significant weather and/or obstructions to visibility.

WVZ003-262100-
Northern Panhandle of West Virginia

CITY           SKY/WX    TMP DP  RH WIND       PRES   REMARKS
WHEELING       SUNNY     59  28  30 N10G18    29.75F
$$

WVZ009-262100-
Northwest West Virginia

CITY           SKY/WX    TMP DP  RH WIND       PRES   REMARKS
PARKERSBURG    SUNNY     62  30  29 N9        29.78F
$$

WVZ006-262100-
Western West Virginia

CITY           SKY/WX    TMP DP  RH WIND       PRES   REMARKS
HUNTINGTON     SUNNY     62  34  35 N7        29.76F
$$

WVZ015-262100-
West Central West Virginia

CITY           SKY/WX    TMP DP  RH WIND       PRES   REMARKS
CHARLESTON     PTSUNNY   60  38  43 VRB6      29.75F
$$

WVZ022-031-262100-
North Central West Virginia

CITY           SKY/WX    TMP DP  RH WIND       PRES   REMARKS
CLARKSBURG     MOSUNNY   60  30  32 MISG      29.72F
MORGANTOWN     MOSUNNY   61  28  28 N12G17    29.74F
$$

WVZ025-035-042-045-262100-
Southern West Virginia

CITY           SKY/WX    TMP DP  RH WIND       PRES   REMARKS
BECKLEY        CLOUDY    43  41  93 N7        29.76S FOG
LOGAN          PTSUNNY   54  43  66 CALM      29.74S
BLUEFIELD      FOG       46  42  86 NW9       29.75S VSB 3/4
LEWISBURG      CLOUDY    48  42  80 W3        29.75R
$$

WVZ047-262100-
Northern Mountains of West Virginia

CITY           SKY/WX    TMP DP  RH WIND       PRES   REMARKS
ELKINS         SUNNY     59  30  33 N9        29.71S
$$

WVZ052-262100-
Eastern Panhandle of West Virginia

CITY           SKY/WX    TMP DP  RH WIND       PRES   REMARKS
MARTINSBURG    MOSUNNY   63  29  27 W7G20     29.69F
PETERSBURG     MOSUNNY   60  30  31 CALM      29.70F
$$



USA.gov is the U.S. government's official web portal to all federal, state and local government web resources and services.